Hazlehurst, GA

10:20 AM EDT on October 19, 2019 (GMT -0400)
Hazlehurst

Weather History for KAZE - August, 2019

Change the Weather History Date:

Saturday, August 24, 2019

  Actual Average Record
Temperature  
Mean Temperature 84 °F -  
Max Temperature 94 °F 91 °F 99 °F (2017)
Min Temperature 75 °F 68 °F 71 °F (2013)
Cooling Degree Days 19    
Growing Degree Days 34 (Base 50)    
Moisture  
Dew Point 72 °F    
Average Humidity 76    
Maximum Humidity 88    
Minimum Humidity 45    
Precipitation  
Precipitation 0.00 in - - ()
Sea Level Pressure  
Sea Level Pressure 30.00 in    
Wind  
Wind Speed 1 mph (East)    
Max Wind Speed 16 mph    
Max Gust Speed 33 mph    
Visibility 10 miles    
Events Rain , Thunderstorm    
Averages and records for this station are not official NWS values.
T = Trace of Precipitation, MM = Missing Value Source: NWS Daily Summary

Daily Weather History Graph

Daily Weather History Graph

Search for Another Location

Airport or City:

Astronomy

Aug. 24, 2019 Rise Set
Actual Time 7:00 AM EDT 8:04 PM EDT
Civil Twilight 6:35 AM EDT 8:29 PM EDT
Nautical Twilight 6:05 AM EDT 8:59 PM EDT
Astronomical Twilight 5:34 AM EDT 9:30 PM EDT
Moon 1:00 AM EDT (8/24) 3:09 PM EDT (8/24)
Length of Visible Light 13h 54m
Length of Day
13h 03m
Last Quarter, 39% of the Moon is Illuminated
Aug 24
Last Quarter
Aug 30
New
Sep 5
First Quarter
Sep 14
Full
Sep 21
Last Quarter

Hourly Weather History & Observations

Time (EDT) Temp. Heat Index Dew Point Humidity Pressure Visibility Wind Dir Wind Speed Gust Speed Precip Events Conditions
12:10 AM 80.8 °F 84.9 °F 72.0 °F 74% 30.02 in 10.0 mi Calm Calm - N/A   Scattered Clouds
12:30 AM 79.9 °F - 71.6 °F 76% 30.01 in 10.0 mi Calm Calm - N/A   Clear
12:50 AM 80.4 °F 84.2 °F 71.4 °F 74% 30.01 in 10.0 mi Calm Calm - N/A   Clear
1:10 AM 80.6 °F 84.6 °F 71.6 °F 74% 30.02 in 10.0 mi Calm Calm - N/A   Mostly Cloudy
1:30 AM 79.7 °F - 72.1 °F 78% 30.01 in 10.0 mi East 4.6 mph - N/A   Mostly Cloudy
1:50 AM 79.2 °F - 72.5 °F 80% 30.01 in 10.0 mi ENE 3.5 mph - N/A   Scattered Clouds
2:10 AM 78.8 °F - 72.9 °F 82% 30.01 in 10.0 mi East 3.5 mph - N/A   Mostly Cloudy
2:30 AM 78.8 °F - 72.9 °F 82% 30.00 in 10.0 mi Calm Calm - N/A   Overcast
2:50 AM 78.8 °F - 72.5 °F 81% 29.99 in 10.0 mi Calm Calm - N/A   Mostly Cloudy
3:10 AM 78.6 °F - 72.0 °F 80% 29.99 in 10.0 mi Calm Calm - N/A   Scattered Clouds
3:30 AM 78.4 °F - 72.3 °F 81% 29.98 in 10.0 mi Calm Calm - N/A   Clear
3:50 AM 77.9 °F - 72.1 °F 82% 29.98 in 10.0 mi Calm Calm - N/A   Clear
4:10 AM 77.9 °F - 72.0 °F 82% 29.97 in 10.0 mi Calm Calm - N/A   Clear
4:30 AM 77.9 °F - 72.0 °F 82% 29.97 in 10.0 mi Calm Calm - N/A   Clear
4:50 AM 77.2 °F - 72.0 °F 84% 29.97 in 10.0 mi Calm Calm - N/A   Clear
5:10 AM 77.4 °F - 72.0 °F 83% 29.96 in 10.0 mi Calm Calm - N/A   Clear
5:30 AM 77.5 °F - 72.5 °F 84% 29.97 in 10.0 mi Calm Calm - N/A   Clear
5:50 AM 77.5 °F - 72.5 °F 84% 29.98 in 10.0 mi Calm Calm - N/A   Clear
6:10 AM 77.0 °F - 72.5 °F 86% 29.98 in 10.0 mi Calm Calm - N/A   Clear
6:30 AM 76.5 °F - 72.1 °F 86% 29.99 in 10.0 mi Calm Calm - N/A   Clear
6:50 AM 76.3 °F - 72.3 °F 87% 29.99 in 10.0 mi Calm Calm - N/A   Clear
7:10 AM 76.5 °F - 72.5 °F 87% 30.01 in 10.0 mi Calm Calm - N/A   Clear
7:50 AM 77.7 °F - 72.9 °F 85% 30.02 in 10.0 mi SE 3.5 mph - N/A   Clear
8:10 AM 79.0 °F - 73.4 °F 83% 30.03 in 10.0 mi SSE 3.5 mph - N/A   Clear
8:30 AM 80.4 °F 85.1 °F 73.8 °F 80% 30.03 in 10.0 mi SSE 4.6 mph - N/A   Clear
8:50 AM 81.1 °F 86.4 °F 73.8 °F 78% 30.04 in 10.0 mi Calm Calm - N/A   Clear
9:30 AM 84.6 °F 91.4 °F 73.6 °F 69% 30.04 in 10.0 mi Calm Calm - N/A   Clear
9:50 AM 86.0 °F 93.0 °F 73.0 °F 65% 30.04 in 10.0 mi Calm Calm - N/A   Clear
10:30 AM 86.9 °F 93.7 °F 72.7 °F 62% 30.04 in 10.0 mi Calm Calm - N/A   Clear
10:50 AM 88.2 °F 94.1 °F 71.1 °F 57% 30.03 in 10.0 mi SSW 3.5 mph - N/A   Clear
11:10 AM 88.0 °F 93.4 °F 70.3 °F 56% 30.03 in 10.0 mi Calm Calm - N/A   Clear
11:30 AM 89.2 °F 94.9 °F 70.7 °F 54% 30.03 in 10.0 mi Calm Calm - N/A   Clear
11:50 AM 90.0 °F 96.4 °F 71.1 °F 54% 30.02 in 10.0 mi Calm Calm - N/A   Clear
12:10 PM 91.0 °F 97.1 °F 70.5 °F 51% 30.02 in 10.0 mi Calm Calm - N/A   Clear
12:30 PM 92.3 °F 98.1 °F 70.2 °F 48% 30.01 in 10.0 mi Calm Calm - N/A   Scattered Clouds
12:50 PM 93.6 °F 100.1 °F 70.5 °F 47% 30.00 in 10.0 mi ENE 4.6 mph - N/A   Scattered Clouds
1:10 PM 93.0 °F 97.9 °F 68.5 °F 45% 29.99 in 10.0 mi Calm Calm - N/A Thunderstorm Scattered Clouds
1:30 PM 91.6 °F 96.2 °F 68.7 °F 47% 29.99 in 10.0 mi Calm Calm - N/A   Mostly Cloudy
1:50 PM 91.8 °F 96.5 °F 68.7 °F 47% 29.98 in 10.0 mi Calm Calm - N/A   Mostly Cloudy
2:10 PM 91.9 °F 96.9 °F 69.1 °F 47% 29.98 in 10.0 mi Calm Calm - N/A   Mostly Cloudy
2:30 PM 86.0 °F 92.6 °F 72.3 °F 64% 30.03 in 2.0 mi SSE 16.1 mph 33.4 mph N/A   Overcast
2:50 PM 76.8 °F - 68.9 °F 76% 30.01 in 0.8 mi ENE 8.1 mph 11.5 mph N/A Rain , Thunderstorm Heavy Thunderstorms and Rain
3:10 PM 75.4 °F - 68.2 °F 78% 29.97 in 1.8 mi East 9.2 mph - N/A Rain , Thunderstorm Heavy Thunderstorms and Rain
3:30 PM 76.3 °F - 69.6 °F 80% 29.98 in 10.0 mi ENE 13.8 mph 21.9 mph N/A Rain , Thunderstorm Light Thunderstorms and Rain
3:50 PM 76.1 °F - 70.3 °F 82% 29.99 in 10.0 mi ENE 5.8 mph - N/A Thunderstorm Scattered Clouds
4:10 PM 76.6 °F - 71.8 °F 85% 29.97 in 10.0 mi ENE 5.8 mph - N/A Thunderstorm Scattered Clouds
4:30 PM 77.5 °F - 72.7 °F 85% 29.97 in 10.0 mi Calm Calm - N/A Rain Light Rain
4:50 PM 77.7 °F - 73.2 °F 86% 29.97 in 10.0 mi Calm Calm - N/A   Clear
5:30 PM 77.0 °F - 72.0 °F 84% 29.97 in 10.0 mi East 4.6 mph - N/A   Light Drizzle
5:50 PM 77.0 °F - 72.0 °F 84% 29.98 in 10.0 mi East 5.8 mph - N/A   Clear
6:10 PM 77.0 °F - 72.1 °F 85% 29.98 in 10.0 mi East 3.5 mph - N/A   Clear
6:30 PM 77.2 °F - 72.5 °F 85% 29.96 in 10.0 mi Calm Calm - N/A Rain Light Rain
6:50 PM 77.5 °F - 72.7 °F 85% 29.96 in 10.0 mi Calm Calm - N/A   Clear
7:10 PM 77.9 °F - 72.5 °F 83% 29.96 in 10.0 mi East 4.6 mph - N/A   Clear
7:30 PM 77.9 °F - 72.5 °F 83% 29.97 in 10.0 mi Calm Calm - N/A   Clear
7:50 PM 77.9 °F - 72.7 °F 84% 29.98 in 10.0 mi Calm Calm - N/A   Clear
8:10 PM 77.5 °F - 72.7 °F 85% 29.99 in 10.0 mi Calm Calm - N/A   Clear
8:30 PM 77.2 °F - 72.5 °F 85% 30.00 in 10.0 mi Calm Calm - N/A   Clear
8:50 PM 77.0 °F - 72.5 °F 86% 30.00 in 10.0 mi Calm Calm - N/A   Clear
9:10 PM 77.0 °F - 72.5 °F 86% 30.01 in 10.0 mi Calm Calm - N/A   Clear
9:30 PM 77.0 °F - 72.1 °F 85% 30.01 in 10.0 mi Calm Calm - N/A   Clear
9:50 PM 77.2 °F - 71.6 °F 83% 30.01 in 10.0 mi Calm Calm - N/A   Clear
10:10 PM 77.0 °F - 71.6 °F 83% 30.02 in 10.0 mi Calm Calm - N/A   Clear
10:50 PM 76.5 °F - 72.5 °F 87% 30.04 in 10.0 mi NE 3.5 mph - N/A   Scattered Clouds
11:10 PM 76.5 °F - 72.5 °F 87% 30.04 in 10.0 mi Calm Calm - N/A   Mostly Cloudy
11:30 PM 76.3 °F - 72.5 °F 88% 30.03 in 10.0 mi Calm Calm - N/A   Scattered Clouds
11:50 PM 76.3 °F - 72.5 °F 88% 30.03 in 10.0 mi Calm Calm - N/A   Mostly Cloudy